TimeMST,TemperatureF,Dew PointF,Humidity,Sea Level PressureIn,VisibilityMPH,Wind Direction,Wind SpeedMPH,Gust SpeedMPH,PrecipitationIn,Events,Conditions,WindDirDegrees,DateUTC
12:56 AM,19.0,9.0,65,30.42,10.0,SSW,4.6,-,N/A,,Clear,200,2013-01-19 07:56:00
1:56 AM,16.0,7.0,68,30.44,10.0,Calm,Calm,-,N/A,,Clear,0,2013-01-19 08:56:00
2:56 AM,16.0,6.1,65,30.44,10.0,Calm,Calm,-,N/A,,Clear,0,2013-01-19 09:56:00
3:56 AM,12.0,3.9,70,30.44,10.0,ESE,3.5,-,N/A,,Clear,120,2013-01-19 10:56:00
4:56 AM,12.9,3.9,67,30.45,10.0,Calm,Calm,-,N/A,,Clear,0,2013-01-19 11:56:00
5:56 AM,10.9,3.9,73,30.50,10.0,SE,3.5,-,N/A,,Clear,130,2013-01-19 12:56:00
6:56 AM,10.0,1.9,70,30.55,10.0,Calm,Calm,-,N/A,,Clear,0,2013-01-19 13:56:00
7:56 AM,12.9,5.0,71,30.57,10.0,SE,5.8,-,N/A,,Clear,130,2013-01-19 14:56:00
8:56 AM,19.0,9.0,65,30.57,10.0,ESE,3.5,-,N/A,,Clear,110,2013-01-19 15:56:00
9:56 AM,27.0,12.0,53,30.58,10.0,East,4.6,-,N/A,,Clear,80,2013-01-19 16:56:00
10:56 AM,33.1,14.0,46,30.56,10.0,Calm,Calm,-,N/A,,Clear,0,2013-01-19 17:56:00
11:56 AM,37.0,15.1,41,30.52,10.0,Calm,Calm,-,N/A,,Clear,0,2013-01-19 18:56:00
12:56 PM,39.9,15.1,36,30.46,10.0,Calm,Calm,-,N/A,,Clear,0,2013-01-19 19:56:00
1:56 PM,43.0,16.0,34,30.43,10.0,NW,3.5,-,N/A,,Clear,310,2013-01-19 20:56:00
2:56 PM,48.0,16.0,28,30.40,10.0,NNW,5.8,-,N/A,,Clear,330,2013-01-19 21:56:00
3:56 PM,46.9,15.1,28,30.41,10.0,NNW,3.5,-,N/A,,Clear,330,2013-01-19 22:56:00
4:56 PM,46.9,16.0,29,30.41,10.0,Variable,3.5,-,N/A,,Clear,0,2013-01-19 23:56:00
5:56 PM,41.0,15.1,35,30.44,10.0,North,3.5,-,N/A,,Clear,360,2013-01-20 00:56:00
6:56 PM,26.1,7.0,44,30.51,10.0,Calm,Calm,-,N/A,,Clear,0,2013-01-20 01:56:00
7:56 PM,21.9,6.1,51,30.51,10.0,SW,5.8,-,N/A,,Clear,230,2013-01-20 02:56:00
8:56 PM,21.9,8.1,55,30.50,10.0,SW,4.6,-,N/A,,Clear,220,2013-01-20 03:56:00
9:56 PM,21.9,9.0,58,30.48,10.0,Calm,Calm,-,N/A,,Clear,0,2013-01-20 04:56:00
10:56 PM,19.9,9.0,62,30.47,10.0,Calm,Calm,-,N/A,,Clear,0,2013-01-20 05:56:00
11:56 PM,17.1,7.0,65,30.47,10.0,Calm,Calm,-,N/A,,Clear,0,2013-01-20 06:56:00